This demonstration page uses our WeatherBlox Daily Observations layout. Learn more.

Left ArrowRight Arrow

41.86663, -103.66717

Hourly Observations for July 17, 2019

Temp ( °F °C ) Dew Point ( °F °C ) Humidity (%) Winds ( mph kmh ) Pressure ( in mb ) Visibility ( mi km ) Precip ( " mm )
12:53 am 00:53 Clear 75 24 N/A N/A ESE 13 20 29.66 1004 10 16 0.00 0.00
1:53 am 01:53 Clear 75 24 N/A N/A ESE 14 22 29.64 1004 10 16 0.00 0.00
2:53 am 02:53 Clear 79 26 N/A N/A WNW 15 24 29.66 1005 10 16 0.00 0.00
3:53 am 03:53 Clear 72 22 N/A N/A W 13 20 29.69 1005 10 16 0.00 0.00
4:53 am 04:53 Clear 64 18 N/A N/A WSW 5 7 29.72 1006 10 16 0.00 0.00
5:53 am 05:53 Sunny 63 17 N/A N/A NW 9 15 29.76 1008 10 16 0.00 0.00
6:53 am 06:53 Mostly Cloudy 63 17 N/A N/A NNW 6 9 29.80 1009 10 16 0.00 0.00
7:00 am 07:00 Mostly Cloudy 63 17 N/A N/A NNW 7 11 29.80 1009 10 16 0.00 0.00
7:09 am 07:09 Cloudy 64 18 N/A N/A N 8 13 29.77 1008 10 16 0.00 0.00
7:53 am 07:53 Cloudy 64 18 N/A N/A N 9 15 29.82 1010 10 16 0.00 0.00
8:08 am 08:08 Cloudy 64 18 N/A N/A WNW 8 13 29.77 1008 10 16 0.00 0.00
8:53 am 08:53 Cloudy 68 20 N/A N/A WNW 9 15 29.83 1010 10 16 0.00 0.00
9:37 am 09:37 Cloudy 70 21 N/A N/A WNW 7 11 29.77 1008 10 16 0.00 0.00
9:53 am 09:53 Cloudy 70 21 N/A N/A W 7 11 29.84 1011 10 16 0.00 0.00
10:53 am 10:53 Cloudy 72 22 N/A N/A NW 6 9 29.83 1010 10 16 0.00 0.00
11:53 am 11:53 Mostly Cloudy 75 24 N/A N/A Calm 29.81 1009 10 16 0.00 0.00
12:53 pm 12:53 Mostly Cloudy 77 25 N/A N/A VRB 3 6 29.79 1009 10 16 0.00 0.00
1:02 pm 13:02 Partly Cloudy 79 26 N/A N/A Calm 29.65 1004 10 16 0.00 0.00
1:53 pm 13:53 Sunny 81 27 N/A N/A Calm 29.76 1008 10 16 0.00 0.00
2:53 pm 14:53 Sunny 82 28 N/A N/A SE 7 11 29.72 1007 10 16 0.00 0.00
3:53 pm 15:53 Sunny 84 29 N/A N/A SSE 12 19 29.71 1006 10 16 0.00 0.00
4:53 pm 16:53 Sunny 88 31 N/A N/A SSE 8 13 29.69 1006 10 16 0.00 0.00
5:53 pm 17:53 Sunny 86 30 N/A N/A SE 12 19 29.67 1005 10 16 0.00 0.00
6:53 pm 18:53 Sunny 84 29 N/A N/A ESE 9 15 29.67 1005 10 16 0.00 0.00
7:53 pm 19:53 Sunny 79 26 N/A N/A E 6 9 29.69 1005 10 16 0.00 0.00
8:53 pm 20:53 Clear 73 23 N/A N/A ENE 7 11 29.70 1006 10 16 0.00 0.00
9:53 pm 21:53 Clear 72 22 N/A N/A SE 7 11 29.71 1006 10 16 0.00 0.00
10:53 pm 22:53 Clear 72 22 N/A N/A ENE 7 11 29.71 1006 10 16 0.00 0.00
11:53 pm 23:53 Clear 72 22 N/A N/A ENE 5 7 29.70 1006 10 16 0.00 0.00

Powered by AerisWeather